RH
59 46 42 32 55 47 51 48 42 40 27 35 38 66 59 61 63 66 33 30 46 49 48 55 77 79 83 85 84 84 84 84 79 75 74 74 73 74 77 74 73 72 74 71 68 66 70 71 70
50 40 45 41 36 35 31 25 42 51 34 38 38 43 52 60 33 34 31 36 41 44 49 63 77 79 81 83 84 84 83 84 84 83 77 75 76 75 75 74 74 77 75 76 74 73 74 75 73
38 40 47 47 43 39 23 19 17 34 38 36 38 37 44 49 31 31 28 38 44 48 52 72 77 78 79 81 82 82 84 83 85 85 84 79 77 80 80 80 82 80 79 81 81 79 79 78 78
44 46 40 45 41 29 15 15 24 41 40 36 35 38 37 31 29 27 33 40 45 46 52 72 75 76 77 78 80 79 80 81 83 84 85 85 82 79 79 80 86 86 85 80 82 82 82 83 80
47 52 48 50 44 31 20 22 38 41 39 39 34 38 41 31 30 30 36 40 44 45 50 68 74 75 75 76 76 77 78 77 78 81 83 86 86 87 86 84 85 85 83 80 82 81 82 84 83
55 44 47 31 40 30 23 28 39 40 42 40 35 40 40 29 32 34 35 38 36 40 44 51 71 74 74 76 75 75 76 75 74 76 78 81 84 85 87 87 86 85 85 86 79 83 82 84 84
56 47 44 27 24 24 22 37 40 41 44 41 34 39 36 31 35 36 36 34 34 37 39 43 45 54 72 70 71 71 72 73 72 70 71 73 77 80 83 85 86 87 86 88 88 82 85 85 83
54 47 44 35 23 21 26 34 30 36 44 35 36 40 39 30 39 38 36 34 33 37 43 42 41 41 51 54 67 67 68 66 68 64 61 65 67 69 76 77 81 82 87 88 89 89 90 83 84
44 49 54 36 28 23 32 27 25 29 38 35 38 39 37 38 40 40 41 40 40 40 43 42 42 42 40 46 51 61 64 66 65 60 60 53 53 53 60 72 76 78 79 83 86 88 92 92 92
50 58 44 38 28 27 29 28 29 30 39 39 42 41 41 42 40 44 42 42 40 40 43 41 41 46 41 37 55 53 51 54 56 56 51 46 49 54 54 63 69 68 68 71 77 80 83 85 78
50 51 45 31 32 26 27 26 27 31 39 41 42 48 46 43 44 45 45 39 40 43 44 46 40 44 48 50 56 59 60 60 60 56 53 46 47 49 54 52 52 52 57 53 58 59 62 72 71
43 35 30 30 30 29 28 26 26 32 30 32 38 44 44 44 46 47 49 48 44 44 45 46 45 44 49 54 56 60 58 59 59 58 56 51 50 48 47 51 55 50 50 51 53 53 53 59 60
33 27 26 24 27 28 26 27 26 28 37 44 43 45 46 45 46 49 48 49 46 45 47 48 46 47 47 52 56 54 59 61 57 56 56 55 53 51 50 52 51 50 51 50 50 52 51 52 55
28 27 24 23 24 21 27 29 25 30 46 46 45 46 46 48 49 52 51 50 45 46 49 49 48 47 48 55 58 58 57 57 57 57 58 56 58 54 57 55 56 53 53 54 51 50 53 53 52
24 23 26 24 22 24 22 24 27 36 45 47 48 48 50 51 51 49 50 46 45 48 48 48 51 49 49 55 52 54 53 55 57 60 60 56 57 60 59 58 56 56 52 47 52 47 52 58 58
23 23 25 26 24 23 23 27 26 41 44 50 50 52 54 54 50 51 51 49 48 52 48 47 41 50 49 50 50 48 54 59 63 60 56 59 57 58 56 57 58 59 56 53 48 50 44 47 49
24 24 22 20 23 22 20 24 23 42 44 46 51 55 56 57 53 51 52 50 50 48 52 50 47 46 51 47 50 52 54 60 60 57 53 56 59 57 55 57 60 60 59 63 58 53 59 52 51
39 28 20 21 23 24 22 31 24 30 42 41 49 55 58 58 53 50 55 52 52 53 48 44 45 44 45 48 46 46 46 53 51 52 50 53 57 59 57 57 57 61 60 61 61 61 59 66 64
62 65 57 39 23 25 25 28 26 25 32 37 48 52 57 58 52 53 55 52 52 51 47 45 43 44 42 39 38 38 41 46 48 48 48 49 55 58 57 59 58 59 61 63 61 64 64 63 67
47 51 38 39 29 31 51 61 53 38 43 51 50 48 51 54 56 58 59 53 53 49 47 47 42 41 40 41 43 41 43 49 46 47 48 50 53 63 51 60 61 62 62 63 68 69 68 66 70
59 66 57 54 44 56 67 62 61 58 57 55 49 61 48 54 55 58 75 61 66 55 61 49 51 48 45 46 45 46 46 46 41 40 42 47 53 62 66 62 62 63 65 68 68 68 68 68 62
43 36 52 51 66 76 77 82 53 67 68 72 74 70 62 58 52 54 71 83 78 79 57 63 61 54 46 44 37 32 31 33 44 46 43 44 51 56 65 67 63 64 66 66 65 61 70 70 69
45 41 56 74 85 80 70 74 65 64 68 67 78 76 80 72 66 62 68 78 79 87 87 81 72 66 61 56 42 41 41 44 47 46 42 44 48 52 60 63 64 66 68 67 69 69 69 67 69
38 53 64 74 86 98 78 76 78 71 79 75 82 84 86 87 74 64 63 75 87 90 91 84 86 78 78 70 58 42 38 40 41 42 43 46 47 49 54 59 64 67 68 69 68 70 70 68 69
68 80 95 94 97 92 84 86 86 80 81 84 96 92 89 90 84 77 75 76 84 87 90 90 86 85 84 81 63 61 45 43 44 46 46 46 45 45 49 61 64 65 70 71 70 71 73 72 72
89 87 90 99 97 87 78 92 89 78 80 87 88 94 89 92 87 84 77 76 80 87 88 90 88 88 88 86 80 66 55 51 50 50 49 48 48 50 56 62 62 66 70 69 70 72 72 72 72
82 95 89 92 96 92 93 82 72 68 78 78 81 75 92 97 90 86 82 82 84 84 88 88 89 86 91 87 88 80 64 58 50 50 50 50 51 45 49 58 63 67 70 71 71 72 71 72 72
87 93 95 95 95 100 91 96 92 91 91 86 88 87 86 86 95 89 83 82 83 86 88 89 89 87 87 90 89 84 80 64 58 56 52 52 53 56 58 60 63 68 69 71 72 72 72 72 72
97 98 95 95 94 94 94 96 96 95 94 95 94 89 90 90 86 91 92 90 87 86 90 90 91 90 91 91 88 88 84 77 64 59 57 56 58 61 60 59 64 66 69 69 70 72 72 73 70
99 97 95 96 95 94 94 95 96 95 92 84 88 87 87 87 89 89 92 90 92 91 90 93 92 91 91 91 88 87 87 84 74 66 60 61 66 64 62 60 62 64 66 68 70 71 70 73 73
Wind_Speed
4 3 2 4 3 0 5 6 7 8 4 1 4 3 8 4 6 3 3 2 4 4 2 4 8 10 11 14 16 16 17 17 11 14 13 12 11 11 11 10 9 4 6 12 14 12 13 13 12
3 3 3 3 4 6 6 8 11 13 1 3 5 3 2 3 3 7 7 3 5 4 4 3 8 11 12 14 14 15 16 17 17 14 13 12 11 9 11 10 9 8 5 11 12 12 10 11 10
4 4 4 4 5 19 7 6 13 6 4 2 4 5 2 3 3 8 6 6 7 7 6 5 10 12 14 14 15 15 14 16 17 17 14 13 11 12 11 11 10 9 7 9 11 12 11 8 7
2 3 3 3 11 5 6 5 5 9 5 2 3 4 1 3 3 4 10 8 9 9 10 9 13 13 15 15 16 16 16 15 18 16 15 16 12 12 11 10 12 11 7 6 12 11 10 9 8
3 3 3 4 5 3 3 0 6 6 2 2 0 4 3 2 7 11 9 7 10 10 10 9 15 15 15 15 16 15 16 16 16 15 15 15 15 15 12 11 12 11 10 5 9 11 10 8 8
3 1 3 15 3 4 3 4 5 4 3 3 4 7 4 5 10 8 9 9 8 9 9 11 17 16 15 15 15 14 15 15 14 15 13 14 14 14 14 13 13 11 11 11 4 10 9 8 8
5 2 5 5 5 5 5 6 5 6 6 4 6 7 3 9 9 10 10 10 10 9 9 9 9 11 15 15 14 14 14 14 14 14 11 11 12 14 12 13 13 13 12 12 12 3 9 8 8
4 3 3 5 6 5 3 7 1 5 5 2 2 6 6 13 13 11 11 10 10 9 9 8 8 8 8 9 13 13 13 13 14 13 10 9 10 11 12 11 13 12 13 13 12 10 9 4 8
3 1 4 5 7 5 4 5 2 1 6 2 2 2 1 19 16 13 11 10 8 8 8 7 7 6 6 8 9 9 12 13 13 9 10 7 6 7 9 11 11 12 12 12 13 13 12 9 6
4 4 10 6 4 2 5 4 8 5 4 3 3 7 15 18 15 14 12 9 9 7 8 7 7 6 6 6 7 7 7 7 8 8 7 5 7 7 7 9 12 11 10 11 11 12 11 7 4
4 5 5 3 3 3 4 3 4 8 4 7 8 15 16 17 14 13 10 10 9 8 7 7 8 7 6 6 5 4 4 4 5 9 7 6 5 5 5 4 5 6 10 6 7 7 5 6 4
3 3 2 3 0 3 5 4 3 5 2 1 5 19 17 18 15 13 12 11 10 9 8 6 7 8 7 5 5 5 5 5 5 6 9 6 4 6 6 5 6 5 6 7 6 4 5 5 4
3 3 2 2 2 1 2 4 4 5 3 6 14 17 16 15 13 10 11 9 10 10 8 7 7 8 7 7 5 6 6 5 6 7 9 7 6 6 5 5 5 6 6 6 5 5 5 4 5
1 2 2 1 0 2 2 2 3 2 5 10 14 14 14 15 14 11 12 11 10 9 9 7 7 7 7 7 7 6 5 5 6 6 7 9 6 5 5 5 6 6 6 5 5 5 5 4 4
3 4 1 2 1 1 1 5 7 2 6 9 8 10 12 13 13 13 12 12 11 9 10 8 8 7 7 7 7 6 5 5 6 6 8 9 8 8 6 5 6 6 5 6 5 5 3 3 4
3 3 3 1 1 0 2 7 3 2 6 7 8 9 10 11 12 11 11 11 10 10 10 7 7 7 8 7 5 5 5 5 5 6 6 9 9 8 7 6 6 6 5 5 4 4 3 3 4
4 3 3 2 2 2 3 4 2 3 5 6 6 7 8 9 9 10 12 11 11 10 10 9 8 8 7 7 6 6 7 6 5 6 6 8 8 8 6 5 5 6 5 5 5 3 4 3 5
4 3 3 3 3 1 2 8 5 1 4 6 8 7 8 10 12 10 11 10 11 10 9 10 7 8 7 5 5 5 5 5 5 5 6 8 7 8 6 5 6 5 5 6 6 4 5 3 6
6 4 2 2 1 1 3 6 10 6 4 6 8 11 12 13 9 10 11 11 10 9 9 8 8 6 5 3 3 3 3 3 4 5 7 7 6 7 7 4 6 6 6 6 7 3 5 4 7
2 2 3 1 1 1 3 10 11 5 5 5 9 10 12 10 11 11 12 12 12 11 10 8 8 7 4 4 3 2 3 3 4 3 6 7 7 7 6 6 6 6 5 7 7 7 2 3 6
2 3 1 2 4 3 5 7 3 3 4 5 3 2 6 12 14 14 13 13 10 12 10 9 8 7 5 6 5 4 3 3 2 3 4 5 5 6 5 5 5 5 5 5 5 7 7 3 3
3 0 2 2 2 3 3 5 3 5 2 8 8 5 4 6 9 11 12 9 11 8 9 8 8 8 6 5 5 4 2 2 2 2 3 4 6 6 6 6 6 5 4 4 4 5 4 4 4
2 2 3 2 4 3 2 1 4 5 8 13 7 7 7 7 7 13 14 13 8 8 7 6 7 6 6 5 5 4 5 4 3 2 3 4 5 6 6 6 5 5 3 4 5 4 5 3 2
4 3 4 3 2 1 2 2 2 5 6 12 10 12 11 9 9 11 11 10 7 5 6 7 7 6 5 5 5 5 5 4 3 3 3 3 3 3 5 5 4 4 4 4 4 4 4 3 3
4 2 2 4 2 4 1 2 3 5 6 6 12 13 11 8 6 9 13 12 10 9 7 5 6 6 4 5 5 5 5 4 4 2 2 3 3 2 4 5 4 4 4 3 3 3 3 3 3
2 4 2 4 2 2 2 4 2 5 7 6 6 7 7 6 3 5 7 9 10 8 8 6 6 5 4 4 4 3 3 2 2 2 1 1 2 2 4 4 5 5 5 4 4 3 3 3 3
2 2 2 4 1 0 1 4 4 13 13 13 13 12 9 6 3 5 6 6 7 9 7 7 6 4 5 5 3 3 2 2 2 1 0 1 2 3 4 5 5 5 5 5 5 4 4 5 5
1 3 0 0 2 4 3 2 5 13 13 14 16 15 11 7 5 4 4 6 4 4 4 5 5 6 5 5 4 3 3 3 2 1 1 2 3 4 5 6 6 6 6 5 5 4 4 5 4
2 1 2 1 2 2 1 2 3 8 8 11 11 12 11 10 6 3 4 5 4 4 5 6 6 6 6 6 5 5 4 4 3 3 2 2 3 4 5 6 6 6 6 6 6 6 6 7 7
3 1 2 2 1 1 2 4 5 5 7 10 11 11 12 8 8 4 4 2 4 4 5 5 6 7 7 6 6 6 5 4 4 4 3 2 3 4 4 5 6 7 6 6 7 8 7 8 8
Wind_Direction
54 21 28 68 139 121 216 228 154 276 255 337 344 157 171 50 167 186 208 93 84 80 36 336 51 60 56 76 82 77 69 66 109 119 112 109 111 106 97 104 85 100 133 127 123 127 118 115 110
69 76 51 91 158 210 223 190 197 233 214 146 73 343 78 116 58 118 126 135 61 43 17 327 65 69 67 72 83 86 81 67 60 70 101 101 96 94 98 89 77 71 131 130 129 122 123 121 117
98 61 114 152 211 226 221 186 205 184 169 127 106 31 28 112 88 134 116 119 92 50 21 81 78 72 71 72 76 75 81 75 65 50 59 84 91 86 81 72 66 70 95 133 128 130 130 121 117
150 63 57 185 225 262 209 181 167 145 185 184 164 118 73 348 140 126 126 110 83 54 29 85 81 74 72 68 69 68 70 71 66 52 46 55 72 88 82 76 63 58 64 132 141 141 139 129 126
5 85 183 239 235 264 259 253 163 164 178 138 109 152 103 64 110 120 114 98 87 64 40 26 79 73 70 68 66 65 67 65 66 54 49 49 53 53 52 62 54 54 53 77 138 153 151 138 134
59 92 151 225 228 232 239 168 159 156 131 117 112 140 137 140 139 118 113 91 74 73 57 48 48 58 67 62 64 61 65 70 67 61 49 49 50 53 46 48 47 45 55 52 104 154 154 147 136
136 160 198 170 209 239 210 141 174 170 152 209 138 137 112 170 142 124 106 93 78 67 67 59 54 58 43 61 57 61 63 65 69 64 54 53 50 50 51 50 45 46 47 49 51 73 159 163 156
119 125 193 214 172 252 200 144 208 157 188 84 1 180 189 185 141 118 105 96 84 70 63 64 60 56 62 45 52 55 61 63 63 66 58 62 57 53 43 46 48 51 44 44 46 48 54 163 163
147 140 227 215 160 200 178 154 49 98 118 89 42 3 315 135 134 125 116 103 92 76 66 63 67 52 70 70 54 45 52 55 58 50 44 49 52 49 47 42 36 53 52 45 41 46 44 67 57
160 186 211 198 201 207 177 188 161 151 143 182 119 72 129 140 147 142 145 132 119 99 81 73 69 63 59 67 63 47 49 50 52 47 37 38 49 46 47 39 29 32 50 45 41 45 46 47 86
168 223 190 221 165 157 166 189 161 144 214 200 188 156 154 152 156 151 147 143 133 118 93 83 82 66 68 67 66 62 40 41 45 47 40 40 39 42 44 37 24 8 21 32 24 28 40 45 35
186 205 172 149 316 155 173 120 192 213 142 328 157 155 157 167 167 159 148 141 138 121 110 96 89 87 72 64 66 64 62 41 46 44 49 41 37 37 40 43 32 30 10 17 26 14 18 32 44
213 177 135 114 118 122 166 191 214 222 82 89 128 148 162 166 161 148 143 136 136 127 117 99 91 90 84 77 69 71 59 56 51 49 42 51 45 40 41 41 36 34 21 14 8 6 9 8 10
97 113 148 331 235 68 199 224 169 143 127 124 147 160 162 165 161 143 149 150 147 133 121 112 90 86 90 88 83 73 66 61 58 52 50 50 55 48 46 45 38 29 23 17 8 356 352 355 349
118 128 188 223 235 268 1 249 236 91 143 146 158 157 156 162 159 165 157 157 152 140 130 116 108 101 94 90 82 74 69 64 61 59 57 57 52 54 49 46 44 25 17 14 14 5 352 349 347
86 51 162 39 181 276 190 251 122 162 157 172 165 162 161 164 167 156 156 152 149 140 135 122 114 105 98 95 85 84 75 77 64 59 49 51 53 52 48 45 40 25 24 21 14 11 351 358 344
21 221 193 259 23 320 198 258 81 144 180 178 185 179 169 156 159 167 165 157 152 145 134 124 121 113 112 103 98 89 83 77 67 63 53 48 43 44 56 50 36 33 35 28 11 13 5 352 343
192 202 233 241 348 18 278 266 280 136 183 196 187 184 183 180 186 173 159 153 150 149 140 134 128 123 121 117 104 94 82 76 65 62 52 45 40 43 44 43 41 33 41 33 22 15 16 13 338
120 120 171 244 75 238 252 280 278 271 234 229 196 193 193 191 179 164 160 155 146 146 145 142 132 133 136 125 122 108 83 73 68 67 58 49 43 40 43 37 38 36 45 35 14 9 22 23 353
110 94 247 228 36 84 348 285 254 223 233 225 206 196 197 182 165 165 163 163 168 164 158 148 137 130 117 117 105 95 131 93 79 66 52 42 43 35 39 30 36 34 36 39 33 30 26 19 21
131 160 240 239 336 75 326 283 358 20 23 350 13 234 187 195 178 173 171 174 160 170 166 154 142 131 116 109 113 101 101 117 120 53 47 38 47 53 46 43 40 39 37 39 35 28 33 12 9
207 260 98 58 67 244 20 285 340 343 350 38 13 16 295 201 185 175 170 168 178 171 159 147 142 135 125 123 113 120 119 118 81 53 40 32 35 42 44 39 34 38 33 34 21 36 34 22 25
141 81 91 92 98 55 327 91 289 8 344 346 329 333 318 270 207 175 178 180 167 150 154 145 140 134 129 115 107 105 99 95 101 77 44 40 38 41 37 31 20 29 28 25 22 19 25 33 5
140 87 58 66 87 25 312 158 356 8 299 313 315 319 313 295 225 185 172 147 138 132 142 145 142 135 131 122 112 111 113 112 103 63 42 28 21 34 36 16 20 20 12 5 357 358 357 350 337
59 61 321 352 20 218 295 114 237 291 304 275 303 315 318 311 215 166 157 159 157 167 158 150 151 149 144 136 130 127 123 120 114 101 65 27 15 10 12 2 360 354 342 333 324 330 324 319 307
59 139 175 240 224 307 80 221 117 247 290 291 301 299 354 14 93 133 156 163 166 163 167 156 161 158 167 157 145 135 133 128 120 116 76 30 347 331 335 342 331 330 326 318 314 303 300 282 285
299 36 243 108 92 308 291 300 317 356 4 2 4 11 6 18 78 129 138 154 157 172 176 176 171 178 189 184 176 181 166 165 149 127 339 333 329 323 345 327 325 323 319 315 306 294 297 289 287
70 139 111 36 254 256 317 321 350 350 343 348 357 360 356 6 52 90 120 141 152 159 167 176 187 196 191 191 196 195 200 201 209 230 294 316 316 320 322 325 325 320 316 310 300 296 291 280 278
39 48 75 315 236 240 197 94 333 322 337 348 350 356 354 354 5 37 111 122 146 160 177 199 197 193 194 189 185 192 195 205 213 243 263 286 310 323 320 319 316 311 307 305 293 286 285 270 269
153 33 279 250 196 271 295 120 316 324 338 353 352 355 357 1 345 3 30 111 144 176 194 205 201 199 203 186 182 194 191 199 210 228 243 266 291 307 303 303 302 301 299 292 284 281 284 277 273